CW1490 Weather Reports


Display with metric or nautical units.
time (UTC)temp
F
wind
direction
speed
MPH
gust
MPH
rain 1hr
in
rain 24hr
in
rain mn
in
humidity
%
barometer
mb
20260505234005 70 178 2.0 4.0 0.00 0.00 0.00 62 1007.4
20260505233502 70 93 2.0 10.0 0.00 0.00 0.00 61 1007.2
20260505233028 70 9 2.0 10.0 0.00 0.00 0.00 60 1007.0
20260505232505 70 43 3.0 8.0 0.00 0.00 0.00 60 1006.9
20260505232004 70 9 3.0 9.0 0.00 0.00 0.00 59 1006.7
20260505231514 71 32 3.0 13.0 0.00 0.00 0.00 59 1006.8
20260505231006 71 71 5.0 24.0 0.00 0.00 0.00 56 1006.9
20260505230501 72 53 8.0 24.0 0.00 0.00 0.00 55 1006.9
20260505230008 74 50 7.0 19.0 0.00 0.00 0.00 52 1006.4
20260505225505 75 321 6.0 19.0 0.00 0.00 0.00 47 1006.4
20260505225009 76 334 9.0 26.0 0.00 0.00 0.00 45 1006.4
20260505224538 77 209 14.0 30.0 0.00 0.00 0.00 45 1005.4
20260505224003 77 211 14.0 30.0 0.00 0.00 0.00 45 1005.2
20260505223513 77 221 14.0 25.0 0.00 0.00 0.00 45 1004.9
20260505223005 78 237 12.0 25.0 0.00 0.00 0.00 43 1004.7
20260505222505 79 238 14.0 26.0 0.00 0.00 0.00 41 1004.6
20260505222005 80 211 15.0 26.0 0.00 0.00 0.00 38 1004.5
20260505221510 81 210 16.0 31.0 0.00 0.00 0.00 32 1004.4
20260505221006 81 234 16.0 35.0 0.00 0.00 0.00 31 1004.5
20260505220507 81 232 17.0 35.0 0.00 0.00 0.00 30 1004.2
20260505220015 81 177 20.0 43.0 0.00 0.00 0.00 29 1003.9
20260505215505 81 200 13.0 43.0 0.00 0.00 0.00 30 1004.2
20260505215007 81 212 14.0 35.0 0.00 0.00 0.00 30 1004.2
20260505214504 81 185 18.0 35.0 0.00 0.00 0.00 30 1004.2
20260505214003 82 198 13.0 31.0 0.00 0.00 0.00 30 1004.1
20260505213506 82 208 18.0 33.0 0.00 0.00 0.00 29 1004.2
20260505213006 83 213 18.0 33.0 0.00 0.00 0.00 30 1004.2
20260505212509 83 219 17.0 30.0 0.00 0.00 0.00 30 1004.0
20260505212006 82 247 18.0 30.0 0.00 0.00 0.00 30 1004.0
20260505211518 82 259 16.0 33.0 0.00 0.00 0.00 30 1003.8
20260505211003 82 219 19.0 33.0 0.00 0.00 0.00 30 1003.7
20260505210505 82 207 14.0 32.0 0.00 0.00 0.00 30 1003.7
20260505210014 82 223 13.0 33.0 0.00 0.00 0.00 31 1003.7
20260505205509 82 194 18.0 48.0 0.00 0.00 0.00 31 1003.7
20260505205006 82 219 20.0 48.0 0.00 0.00 0.00 30 1003.6
20260505204519 82 208 18.0 43.0 0.00 0.00 0.00 31 1003.7
20260505204010 82 203 20.0 42.0 0.00 0.00 0.00 31 1003.6
20260505203506 83 223 19.0 42.0 0.00 0.00 0.00 31 1003.6
20260505203008 82 173 12.0 36.0 0.00 0.00 0.00 31 1003.7
20260505202503 83 241 20.0 36.0 0.00 0.00 0.00 32 1003.7
20260505202003 83 219 20.0 45.0 0.00 0.00 0.00 31 1003.7
20260505201506 83 223 24.0 47.0 0.00 0.00 0.00 31 1003.8
20260505201011 84 189 21.0 47.0 0.00 0.00 0.00 31 1003.8
20260505200503 84 215 20.0 38.0 0.00 0.00 0.00 31 1003.9
20260505200009 83 219 18.0 38.0 0.00 0.00 0.00 32 1004.0
20260505195505 83 221 19.0 38.0 0.00 0.00 0.00 32 1003.9
20260505195003 83 215 14.0 38.0 0.00 0.00 0.00 32 1004.0
20260505194517 83 223 17.0 41.0 0.00 0.00 0.00 31 1004.0
20260505194007 83 223 24.0 41.0 0.00 0.00 0.00 31 1004.2
20260505193510 83 225 18.0 37.0 0.00 0.00 0.00 31 1004.2
20260505193025 83 182 12.0 38.0 0.00 0.00 0.00 31 1004.2
20260505192507 83 156 13.0 38.0 0.00 0.00 0.00 31 1004.2
20260505192010 83 221 17.0 37.0 0.00 0.00 0.00 31 1004.3
20260505191507 83 232 20.0 37.0 0.00 0.00 0.00 30 1004.2
20260505191007 83 213 11.0 33.0 0.00 0.00 0.00 31 1004.1
20260505190503 83 219 22.0 37.0 0.00 0.00 0.00 31 1004.2
20260505190007 83 167 20.0 39.0 0.00 0.00 0.00 33 1004.3
20260505185514 82 231 26.0 39.0 0.00 0.00 0.00 34 1004.4
20260505185004 82 191 19.0 28.0 0.00 0.00 0.00 37 1004.5
20260505184519 82 205 16.0 29.0 0.00 0.00 0.00 37 1004.4
20260505184008 83 209 17.0 32.0 0.00 0.00 0.00 37 1004.4
20260505183508 83 157 16.0 37.0 0.00 0.00 0.00 37 1004.5
20260505183020 83 227 16.0 37.0 0.00 0.00 0.00 38 1004.6
20260505182507 82 210 16.0 35.0 0.00 0.00 0.00 35 1004.6
20260505182012 81 216 21.0 35.0 0.00 0.00 0.00 37 1005.1
20260505181523 82 219 16.0 28.0 0.00 0.00 0.00 40 1004.9
20260505181012 82 207 16.0 30.0 0.00 0.00 0.00 38 1005.1
20260505180507 81 221 18.0 30.0 0.00 0.00 0.00 38 1005.2
20260505180034 81 141 15.0 30.0 0.00 0.00 0.00 38 1005.2
20260505175503 82 207 19.0 31.0 0.00 0.00 0.00 38 1005.2
20260505175007 82 207 16.0 36.0 0.00 0.00 0.00 38 1005.2
20260505174512 82 246 19.0 38.0 0.00 0.00 0.00 38 1005.2
20260505174011 82 214 18.0 38.0 0.00 0.00 0.00 38 1005.4
20260505173510 82 137 11.0 24.0 0.00 0.00 0.00 39 1005.3
20260505173031 82 198 16.0 27.0 0.00 0.00 0.00 38 1005.4
20260505172509 81 247 15.0 33.0 0.00 0.00 0.00 38 1005.5
20260505172008 82 224 21.0 33.0 0.00 0.00 0.00 38 1005.5
20260505171521 82 221 16.0 31.0 0.00 0.00 0.00 38 1005.6
20260505171007 82 153 19.0 31.0 0.00 0.00 0.00 37 1005.7
20260505170510 82 171 16.0 31.0 0.00 0.00 0.00 38 1005.5
20260505170024 82 196 14.0 26.0 0.00 0.00 0.00 38 1005.5
20260505165507 81 223 16.0 26.0 0.00 0.00 0.00 39 1005.6
20260505165011 80 173 11.0 26.0 0.00 0.00 0.00 41 1005.7
20260505164526 80 158 10.0 26.0 0.00 0.00 0.00 41 1005.9
20260505164009 81 207 9.0 26.0 0.00 0.00 0.00 42 1005.9
20260505163504 80 229 16.0 26.0 0.00 0.00 0.00 41 1006.0
20260505163028 80 221 11.0 26.0 0.00 0.00 0.00 42 1006.1
20260505162504 80 200 14.0 27.0 0.00 0.00 0.00 43 1006.2
20260505162007 80 209 15.0 27.0 0.00 0.00 0.00 43 1006.3
20260505161520 79 146 8.0 19.0 0.00 0.00 0.00 43 1006.1
20260505161007 79 142 11.0 25.0 0.00 0.00 0.00 43 1006.4
20260505160507 80 219 13.0 25.0 0.00 0.00 0.00 42 1006.6
20260505153027 76 153 12.0 24.0 0.00 0.00 0.00 44 1007.4
20260505152509 76 218 9.0 25.0 0.00 0.00 0.00 45 1007.6
20260505152008 75 231 14.0 25.0 0.00 0.00 0.00 46 1007.7
20260505151527 75 205 9.0 25.0 0.00 0.00 0.00 47 1007.8
20260505151009 75 223 16.0 25.0 0.00 0.00 0.00 47 1007.8
20260505150503 74 221 12.0 22.0 0.00 0.00 0.00 47 1008.0
20260505140507 66 225 9.0 14.0 0.00 0.00 0.00 60 1008.8
20260505125008 59 232 6.0 16.0 0.00 0.00 0.00 67 1009.0
20260505124532 59 202 6.0 16.0 0.00 0.00 0.00 70 1009.1
20260505124009 59 236 8.0 16.0 0.00 0.00 0.00 70 1009.0
20260505123504 58 219 8.0 16.0 0.00 0.00 0.00 71 1009.0
20260505123005 58 242 7.0 17.0 0.00 0.00 0.00 71 1009.0
20260505122504 57 221 10.0 17.0 0.00 0.00 0.00 72 1009.1
20260505122003 57 183 7.0 19.0 0.00 0.00 0.00 74 1009.0
20260505121524 57 223 10.0 19.0 0.00 0.00 0.00 73 1009.1
20260505121003 56 237 6.0 12.0 0.00 0.00 0.00 74 1009.2
20260505120503 55 188 6.0 11.0 0.00 0.00 0.00 74 1009.3
20260505120016 55 186 5.0 11.0 0.00 0.00 0.00 74 1009.2
20260505115506 55 200 6.0 12.0 0.00 0.00 0.00 74 1009.3
20260505115007 55 191 6.0 12.0 0.00 0.00 0.00 74 1009.4
20260505114517 55 234 7.0 12.0 0.00 0.00 0.00 75 1009.4
20260505114009 55 217 8.0 13.0 0.00 0.00 0.00 75 1009.3
20260505113509 55 203 4.0 13.0 0.00 0.00 0.00 75 1009.4
20260505113021 55 178 6.0 12.0 0.00 0.00 0.00 75 1009.4
20260505112511 55 207 5.0 16.0 0.00 0.00 0.00 76 1009.5
20260505112008 54 216 8.0 16.0 0.00 0.00 0.00 75 1009.5
20260505111510 54 218 7.0 12.0 0.00 0.00 0.00 76 1009.5
20260505111004 53 200 8.0 12.0 0.00 0.00 0.00 77 1009.4
20260505110504 53 196 5.0 10.0 0.00 0.00 0.00 77 1009.3
20260505102007 49 229 5.0 8.0 0.00 0.00 0.00 82 1008.8
20260505101523 49 232 4.0 7.0 0.00 0.00 0.00 82 1008.7
20260505101007 49 213 5.0 7.0 0.00 0.00 0.00 81 1008.6
20260505100507 49 238 3.0 6.0 0.00 0.00 0.00 81 1008.7
20260505100036 50 231 3.0 6.0 0.00 0.00 0.00 80 1008.7
20260505095505 50 221 3.0 5.0 0.00 0.00 0.00 80 1008.7
20260505095006 50 221 3.0 5.0 0.00 0.00 0.00 79 1008.8
20260505094515 51 210 2.0 8.0 0.00 0.00 0.00 78 1008.8
20260505094006 51 247 3.0 8.0 0.00 0.00 0.00 78 1008.8
20260505093506 51 236 5.0 8.0 0.00 0.00 0.00 77 1008.7
20260505093026 51 218 3.0 8.0 0.00 0.00 0.00 77 1008.7
20260505092507 51 224 4.0 8.0 0.00 0.00 0.00 77 1008.6
20260505092006 52 218 3.0 10.0 0.00 0.00 0.00 76 1008.6
20260505091528 52 231 4.0 10.0 0.00 0.00 0.00 76 1008.6
20260505091007 52 219 5.0 9.0 0.00 0.00 0.00 77 1008.7
20260505090510 52 207 4.0 10.0 0.00 0.00 0.00 77 1008.7
20260505090024 51 207 4.0 10.0 0.00 0.00 0.00 78 1008.8
20260505085508 51 282 2.0 8.0 0.00 0.00 0.00 77 1008.9
20260505085015 51 205 2.0 8.0 0.00 0.00 0.00 77 1008.9
20260505084528 51 224 3.0 7.0 0.00 0.00 0.00 78 1009.0
20260505084003 51 205 1.0 5.0 0.00 0.00 0.00 77 1009.1
20260505083504 51 195 2.0 9.0 0.00 0.00 0.00 76 1009.1
20260505083020 52 217 2.0 9.0 0.00 0.00 0.00 75 1009.0
20260505082504 52 221 2.0 8.0 0.00 0.00 0.00 74 1009.0
20260505082006 53 217 2.0 12.0 0.00 0.00 0.00 74 1008.9
20260505081522 52 200 3.0 12.0 0.00 0.00 0.00 74 1008.9
20260505081010 52 232 5.0 12.0 0.00 0.00 0.00 74 1008.8
20260505080508 52 215 5.0 12.0 0.00 0.00 0.00 74 1008.8
20260505080041 52 209 3.0 11.0 0.00 0.00 0.00 74 1008.7
20260505075507 52 205 3.0 13.0 0.00 0.00 0.00 73 1008.8
20260505075008 53 227 6.0 13.0 0.00 0.00 0.00 73 1008.7
20260505074528 53 232 5.0 12.0 0.00 0.00 0.00 73 1008.9
20260505074010 53 207 7.0 12.0 0.00 0.00 0.00 73 1008.9
20260505073508 53 232 6.0 11.0 0.00 0.00 0.00 73 1008.9
20260505073027 52 212 4.0 10.0 0.00 0.00 0.00 73 1008.9
20260505072511 53 236 5.0 11.0 0.00 0.00 0.00 72 1008.9
20260505072008 53 213 6.0 11.0 0.00 0.00 0.00 72 1008.9
20260505071522 53 211 4.0 10.0 0.00 0.00 0.00 72 1009.0
20260505071013 53 219 5.0 10.0 0.00 0.00 0.00 72 1009.0
20260505070511 53 229 4.0 9.0 0.00 0.00 0.00 72 1009.0
20260505070023 53 236 4.0 9.0 0.00 0.00 0.00 72 1009.0
20260505065507 53 238 4.0 10.0 0.00 0.00 0.00 72 1009.0
20260505065015 53 252 4.0 10.0 0.00 0.00 0.00 71 1009.0
20260505064527 53 243 4.0 11.0 0.00 0.00 0.00 71 1009.0
20260505064008 53 243 6.0 11.0 0.00 0.00 0.00 71 1009.0
20260505063511 53 221 4.0 11.0 0.00 0.00 0.00 70 1009.0
20260505063009 54 237 4.0 11.0 0.00 0.00 0.00 70 1009.0
20260505062504 54 229 6.0 11.0 0.00 0.00 0.00 70 1009.0
20260505062005 54 217 7.0 12.0 0.00 0.00 0.00 69 1009.1
20260505061512 54 193 6.0 12.0 0.00 0.00 0.00 69 1009.1
20260505061003 54 207 6.0 11.0 0.00 0.00 0.00 69 1009.2
20260505060507 54 190 7.0 11.0 0.00 0.00 0.00 68 1009.2
20260505060011 54 265 6.0 12.0 0.00 0.00 0.00 68 1009.3
20260505055503 54 232 7.0 12.0 0.00 0.00 0.00 68 1009.3
20260505055003 54 194 5.0 10.0 0.00 0.00 0.00 68 1009.4
20260505054505 55 216 5.0 11.0 0.00 0.00 0.00 67 1009.4
20260505054004 55 232 6.0 11.0 0.00 0.00 0.00 67 1009.3
20260505053503 54 205 6.0 12.0 0.00 0.00 0.00 67 1009.3
20260505053007 54 218 7.0 12.0 0.00 0.00 0.00 68 1009.3
20260505052503 54 223 4.0 8.0 0.00 0.00 0.00 68 1009.2
20260505052004 54 225 3.0 11.0 0.00 0.00 0.00 68 1009.3
20260505051522 54 173 3.0 11.0 0.00 0.00 0.00 67 1009.3
20260505051005 55 231 4.0 10.0 0.00 0.00 0.00 66 1009.4
20260505050503 55 212 2.0 6.0 0.00 0.00 0.00 65 1009.4
20260505041510 56 224 5.0 10.0 0.00 0.00 0.00 63 1009.2
20260505041006 57 227 5.0 10.0 0.00 0.00 0.00 62 1009.2
20260505040506 57 212 5.0 10.0 0.00 0.00 0.00 62 1009.2
20260505040016 57 191 4.0 10.0 0.00 0.00 0.00 62 1009.2
20260505035507 56 219 4.0 16.0 0.00 0.00 0.00 62 1009.1
20260505035007 57 207 4.0 16.0 0.00 0.00 0.00 61 1009.0
20260505034517 57 221 4.0 10.0 0.00 0.00 0.00 60 1008.9
20260505034006 58 218 5.0 11.0 0.00 0.00 0.00 60 1008.9
20260505033507 58 211 7.0 11.0 0.00 0.00 0.00 59 1008.9
20260505033023 58 207 7.0 11.0 0.00 0.00 0.00 60 1008.9
20260505032508 58 218 5.0 14.0 0.00 0.00 0.00 59 1008.9
20260505032007 59 227 5.0 15.0 0.00 0.00 0.00 58 1008.8
20260505031526 59 189 7.0 15.0 0.00 0.00 0.00 57 1008.7
20260505031003 59 213 8.0 18.0 0.00 0.00 0.00 57 1008.7
20260505030504 59 201 8.0 18.0 0.00 0.00 0.00 57 1008.7
20260505030012 59 209 10.0 16.0 0.00 0.00 0.00 56 1008.7
20260505025514 60 202 9.0 18.0 0.00 0.00 0.00 56 1008.7
20260505025007 60 223 9.0 17.0 0.00 0.00 0.00 56 1008.7
20260505024517 60 207 10.0 16.0 0.00 0.00 0.00 56 1008.7
20260505024010 60 211 7.0 12.0 0.00 0.00 0.00 56 1008.7
20260505023505 60 219 7.0 17.0 0.00 0.00 0.00 55 1008.7
20260505023022 60 217 9.0 17.0 0.00 0.00 0.00 55 1008.7
20260505022506 60 208 6.0 12.0 0.00 0.00 0.00 55 1008.7
20260505022010 60 219 6.0 16.0 0.00 0.00 0.00 54 1008.8
20260505021520 61 227 8.0 16.0 0.00 0.00 0.00 53 1008.7
20260505021006 61 213 9.0 16.0 0.00 0.00 0.00 53 1008.7
20260505020508 61 219 8.0 14.0 0.00 0.00 0.00 53 1008.7
20260505020023 61 218 8.0 18.0 0.00 0.00 0.00 52 1008.6
20260505015508 61 238 9.0 18.0 0.00 0.00 0.00 52 1008.5
20260505015005 60 182 9.0 17.0 0.00 0.00 0.00 54 1008.5
20260505014521 60 198 7.0 17.0 0.00 0.00 0.00 53 1008.5
20260505014007 59 216 8.0 14.0 0.00 0.00 0.00 55 1008.5
20260505013506 57 207 7.0 12.0 0.00 0.00 0.00 57 1008.5
20260505013020 56 196 6.0 11.0 0.00 0.00 0.00 60 1008.5
20260505012506 55 221 6.0 9.0 0.00 0.00 0.00 67 1008.4
20260505012010 55 219 6.0 9.0 0.00 0.00 0.00 67 1008.2
20260505011522 55 214 3.0 7.0 0.00 0.00 0.00 66 1008.1
20260505011006 56 218 4.0 8.0 0.00 0.00 0.00 65 1008.1
20260505010507 56 221 5.0 8.0 0.00 0.00 0.00 63 1008.1
20260505010023 57 195 4.0 7.0 0.00 0.00 0.00 60 1008.0
20260505005508 58 212 4.0 7.0 0.00 0.00 0.00 60 1007.9
20260505005008 58 218 4.0 6.0 0.00 0.00 0.00 59 1007.9
20260505004522 59 198 3.0 7.0 0.00 0.00 0.00 58 1007.8
20260505004008 59 218 4.0 7.0 0.00 0.00 0.00 54 1007.8
20260505003503 60 216 4.0 8.0 0.00 0.00 0.00 55 1007.7
20260505003019 61 216 4.0 8.0 0.00 0.00 0.00 52 1007.6
20260505002508 62 193 4.0 8.0 0.00 0.00 0.00 50 1007.5
20260505002008 62 236 5.0 7.0 0.00 0.00 0.00 50 1007.5
20260505001524 62 242 4.0 7.0 0.00 0.00 0.00 50 1007.4
20260505001007 63 218 4.0 9.0 0.00 0.00 0.00 51 1007.4
20260505000506 64 202 6.0 9.0 0.00 0.00 0.00 47 1007.3
20260505000031 64 221 5.0 10.0 0.00 0.00 0.00 46 1007.2
20260504235507 64 215 6.0 10.0 0.00 0.00 0.00 44 1007.1
20260504235009 65 218 5.0 8.0 0.00 0.00 0.00 45 1007.0
20260504234524 65 213 4.0 8.0 0.00 0.00 0.00 43 1006.8